TimeEST,TemperatureF,Dew PointF,Humidity,Sea Level PressureIn,VisibilityMPH,Wind Direction,Wind SpeedMPH,Gust SpeedMPH,PrecipitationIn,Events,Conditions,WindDirDegrees,DateUTC
12:04 AM,6.8,3.2,85,30.18,10.0,SW,8.1,-,N/A,,Mostly Cloudy,230,2013-02-02 05:04:00
12:38 AM,6.8,1.4,79,30.17,10.0,SW,6.9,-,N/A,,Scattered Clouds,230,2013-02-02 05:38:00
12:56 AM,6.1,1.9,83,30.28,10.0,SW,8.1,-,N/A,,Clear,230,2013-02-02 05:56:00
1:35 AM,6.8,1.4,79,30.15,10.0,SW,8.1,-,N/A,,Mostly Cloudy,230,2013-02-02 06:35:00
1:56 AM,7.0,1.0,77,30.26,10.0,SW,9.2,-,N/A,,Overcast,220,2013-02-02 06:56:00
2:56 AM,7.0,1.0,77,30.26,10.0,SW,13.8,-,N/A,,Overcast,230,2013-02-02 07:56:00
3:56 AM,7.0,1.0,77,30.25,8.0,SW,10.4,18.4,N/A,,Overcast,230,2013-02-02 08:56:00
4:56 AM,7.0,1.9,80,30.24,8.0,SW,9.2,-,N/A,,Overcast,220,2013-02-02 09:56:00
5:56 AM,8.1,1.9,76,30.22,8.0,SW,9.2,-,N/A,,Overcast,230,2013-02-02 10:56:00
6:56 AM,8.1,1.0,73,30.22,10.0,SW,10.4,-,N/A,,Overcast,220,2013-02-02 11:56:00
7:56 AM,8.1,1.9,76,30.22,10.0,SW,10.4,-,N/A,,Overcast,230,2013-02-02 12:56:00
8:53 AM,8.6,3.2,79,30.09,5.0,SW,9.2,-,N/A,,Haze,220,2013-02-02 13:53:00
8:56 AM,9.0,1.9,73,30.20,5.0,SW,12.7,19.6,N/A,,Haze,220,2013-02-02 13:56:00
9:14 AM,8.6,3.2,79,30.08,1.8,SW,9.2,-,0.00,Snow,Light Snow,230,2013-02-02 14:14:00
9:40 AM,8.6,3.2,79,30.07,2.0,SW,12.7,17.3,0.00,Snow,Light Snow,230,2013-02-02 14:40:00
9:56 AM,9.0,3.9,80,30.18,0.8,SW,9.2,17.3,0.00,Snow,Light Snow,220,2013-02-02 14:56:00
10:56 AM,10.9,6.1,81,30.16,0.8,SSW,6.9,-,0.00,Snow,Light Snow,200,2013-02-02 15:56:00
11:12 AM,10.4,5.0,79,30.04,1.0,SW,10.4,-,0.00,Snow,Light Snow,220,2013-02-02 16:12:00
11:49 AM,12.2,6.8,79,30.01,0.5,SSW,8.1,18.4,0.00,Snow,Snow,200,2013-02-02 16:49:00
11:56 AM,12.0,8.1,84,30.12,0.2,SSW,9.2,-,0.00,Fog-Snow,Snow,210,2013-02-02 16:56:00
12:07 PM,12.2,8.6,85,30.00,0.5,SW,10.4,-,0.00,Snow,Snow,230,2013-02-02 17:07:00
12:46 PM,14.0,8.6,79,29.98,0.8,SW,6.9,-,0.00,Snow,Light Snow,220,2013-02-02 17:46:00
12:56 PM,14.0,9.0,80,30.08,0.5,SW,9.2,-,0.00,Snow,Snow,230,2013-02-02 17:56:00
1:56 PM,14.0,10.0,84,30.04,0.2,SW,6.9,-,0.00,Fog-Snow,Light Snow,230,2013-02-02 18:56:00
2:16 PM,15.8,10.4,79,29.92,0.5,South,3.5,-,0.00,Fog-Snow,Light Snow,190,2013-02-02 19:16:00
2:36 PM,15.8,10.4,79,29.92,0.8,South,5.8,-,0.00,Snow,Light Snow,170,2013-02-02 19:36:00
2:49 PM,15.8,10.4,79,29.91,1.0,South,8.1,-,0.00,Snow,Light Snow,180,2013-02-02 19:49:00
2:56 PM,16.0,10.9,81,30.01,0.8,Variable,5.8,-,0.00,Snow,Light Snow,0,2013-02-02 19:56:00
3:23 PM,15.8,12.2,86,29.90,1.0,Variable,3.5,-,0.00,Snow,Light Snow,0,2013-02-02 20:23:00
3:56 PM,16.0,12.0,84,30.00,0.8,South,4.6,-,0.00,Snow,Light Snow,170,2013-02-02 20:56:00
4:17 PM,17.6,12.2,79,29.89,0.5,South,3.5,-,0.01,Fog-Snow,Light Snow,180,2013-02-02 21:17:00
4:29 PM,17.6,14.0,86,29.89,0.2,Calm,Calm,-,0.01,Fog-Snow,Light Snow,0,2013-02-02 21:29:00
4:45 PM,17.6,14.0,86,29.89,0.5,Calm,Calm,-,0.02,Fog-Snow,Light Snow,0,2013-02-02 21:45:00
4:56 PM,17.1,14.0,88,29.99,0.5,SW,3.5,-,0.02,Fog-Snow,Light Snow,220,2013-02-02 21:56:00
5:05 PM,17.6,14.0,86,29.89,0.5,SSW,3.5,-,0.00,Fog-Snow,Light Snow,210,2013-02-02 22:05:00
5:49 PM,17.6,15.8,93,29.89,1.5,Calm,Calm,-,0.01,Snow,Light Snow,0,2013-02-02 22:49:00
5:56 PM,17.1,14.0,88,29.99,1.2,SSW,3.5,-,0.01,Snow,Light Snow,210,2013-02-02 22:56:00
7:05 PM,17.6,15.8,93,29.89,3.0,Calm,Calm,-,0.01,Snow,Light Snow,0,2013-02-03 00:05:00
7:43 PM,17.6,15.8,93,29.89,2.0,SW,4.6,-,0.01,Snow,Light Snow,220,2013-02-03 00:43:00
7:56 PM,17.1,15.1,92,30.00,2.0,SW,3.5,-,0.01,,Overcast,220,2013-02-03 00:56:00
8:56 PM,17.1,15.1,92,29.99,8.0,SW,3.5,-,N/A,,Overcast,220,2013-02-03 01:56:00
9:56 PM,18.0,15.1,88,29.98,6.0,West,3.5,-,N/A,,Overcast,260,2013-02-03 02:56:00
9:58 PM,17.6,15.8,93,29.88,6.0,West,4.6,-,N/A,,Overcast,260,2013-02-03 02:58:00
10:15 PM,17.6,15.8,93,29.88,5.0,WSW,5.8,-,N/A,,Overcast,240,2013-02-03 03:15:00
10:56 PM,18.0,16.0,92,29.97,3.0,WSW,4.6,-,0.00,,Overcast,240,2013-02-03 03:56:00
11:56 PM,18.0,16.0,92,29.97,8.0,WSW,6.9,-,N/A,,Overcast,240,2013-02-03 04:56:00